This is the latest recevied weather packets stored in our database for station/object DL4PY-13. If no packets are shown the sender has not sent any weather packets the latest 10 day(s).
| Time | Temp. | Humidity | Pressure | Rain* | Wind** | Luminosity | Snow |
|---|---|---|---|---|---|---|---|
| 1777546137 | 13.89° C | 25% | 1028.6 hPa | 0 mm | - | - | - |
| 1777545831 | 13.89° C | 26% | 1028.6 hPa | 0 mm | - | - | - |
| 1777545538 | 13.33° C | 27% | 1028.7 hPa | 0 mm | - | - | - |
| 1777545238 | 13.33° C | 28% | 1028.8 hPa | 0 mm | - | - | - |
| 1777544931 | 13.33° C | 27% | 1028.8 hPa | 0 mm | - | - | - |
| 1777544638 | 12.78° C | 28% | 1028.8 hPa | 0 mm | - | - | - |
| 1777544032 | 13.33° C | 28% | 1028.9 hPa | 0 mm | - | - | - |
| 1777543439 | 13.33° C | 29% | 1028.9 hPa | 0 mm | - | - | - |
| 1777543133 | 13.33° C | 30% | 1028.9 hPa | 0 mm | - | - | - |
| 1777542837 | 12.78° C | 30% | 1028.9 hPa | 0 mm | - | - | - |
| 1777542538 | 12.78° C | 29% | 1028.9 hPa | 0 mm | - | - | - |
| 1777542231 | 13.33° C | 30% | 1029 hPa | 0 mm | - | - | - |
| 1777541939 | 12.78° C | 33% | 1028.9 hPa | 0 mm | - | - | - |
| 1777541637 | 12.22° C | 33% | 1029 hPa | 0 mm | - | - | - |
| 1777541332 | 12.22° C | 31% | 1029.2 hPa | 0 mm | - | - | - |
| 1777541037 | 11.67° C | 34% | 1029.2 hPa | 0 mm | - | - | - |
| 1777540737 | 12.22° C | 33% | 1029.3 hPa | 0 mm | - | - | - |
| 1777540430 | 12.22° C | 33% | 1029.3 hPa | 0 mm | - | - | - |
| 1777540128 | 12.22° C | 33% | 1029.3 hPa | 0 mm | - | - | - |
| 1777539837 | 11.67° C | 33% | 1029.3 hPa | 0 mm | - | - | - |
| 1777539538 | 11.67° C | 33% | 1029.1 hPa | 0 mm | - | - | - |
| 1777539229 | 11.67° C | 34% | 1029.1 hPa | 0 mm | - | - | - |
| 1777538328 | 11.11° C | 34% | 1029.1 hPa | 0 mm | - | - | - |
| 1777537738 | 11.11° C | 36% | 1029.2 hPa | 0 mm | - | - | - |
| 1777537442 | 10.56° C | 36% | 1029.2 hPa | 0 mm | - | - | - |
* Rain latest hour (hover to see other rain measurements)
** Current wind speed in m/s (hover to see current wind gust speed)